GFSCGP_250_spd_132.txt.gz
Wind_Speed
100 101 85 84 88 87 91 89 88 87 82 74 85 94 98 108 110 114 117 116 113 111 110 109 106 107 105 103 100 99 99 101 98 97 97 96 97 98 98 97 97 95 95 97
100 91 90 96 96 93 91 91 87 89 87 84 82 84 86 91 104 107 107 109 110 107 109 110 112 109 107 108 108 108 107 105 104 103 105 105 104 103 103 102 102 101 101 100
95 90 98 94 96 95 94 91 90 91 89 90 90 88 83 81 91 97 100 107 109 107 105 104 105 109 112 110 111 112 112 111 110 106 107 109 109 109 109 109 106 106 106 105
84 90 92 96 95 99 98 94 95 95 94 93 95 88 84 78 83 84 90 91 98 103 104 103 106 109 108 110 112 111 112 111 110 110 110 110 110 111 112 111 110 109 107 108
77 91 89 97 89 97 94 102 98 96 96 99 98 93 85 79 83 81 83 86 82 83 91 96 100 104 105 109 109 110 111 113 112 112 112 112 112 112 112 111 114 114 112 111
74 85 85 77 91 100 107 109 105 102 100 101 92 92 91 82 81 82 81 80 85 85 86 85 89 98 104 110 112 113 113 114 115 114 115 115 115 117 118 117 117 118 118 117
68 76 83 81 84 97 110 112 110 112 112 86 87 91 86 84 84 80 78 76 73 74 79 81 80 86 92 98 100 103 106 108 111 112 112 110 109 111 114 114 115 115 115 114
64 70 75 78 76 85 97 109 107 105 97 88 91 86 85 80 79 78 76 76 74 73 71 73 73 74 82 86 87 89 90 92 91 88 87 85 82 81 82 85 87 93 96 97
56 64 68 71 76 80 90 100 104 106 99 102 95 90 82 79 79 78 76 77 78 75 70 66 70 70 74 79 79 81 81 83 83 81 79 77 74 73 73 71 74 77 78 79
50 57 64 67 73 74 74 88 103 112 106 104 100 93 88 82 79 76 75 71 71 73 73 72 71 70 70 73 75 78 76 78 79 79 77 76 76 72 68 67 68 69 70 74
40 50 58 62 63 62 71 83 97 100 103 99 97 94 92 86 84 79 75 73 71 71 70 69 69 67 69 70 71 72 74 76 76 75 75 74 70 65 65 65 65 64 64 64
35 42 51 61 67 69 69 76 82 94 101 100 99 98 92 85 83 82 80 76 73 72 71 70 70 70 67 66 68 67 67 67 68 68 65 63 61 62 59 56 51 54 58 61
29 34 41 46 54 64 67 69 77 84 91 96 95 90 90 83 81 82 79 76 73 72 71 71 71 70 67 67 67 67 64 66 67 61 61 60 58 54 50 49 47 44 47 55
25 28 32 40 48 51 61 68 73 79 84 88 89 85 86 80 74 74 75 72 71 72 71 70 70 69 65 67 68 65 63 64 65 59 58 56 52 50 49 49 49 44 49 54
19 25 27 31 37 45 50 59 70 75 80 83 81 83 79 75 69 70 70 70 70 70 68 68 65 63 66 67 65 65 66 63 59 57 54 54 52 52 50 48 52 59 62 65
18 22 28 26 32 37 43 48 57 69 78 78 75 77 77 72 69 69 68 68 69 69 65 64 64 64 66 66 65 66 64 62 58 53 52 52 48 47 47 49 53 51 55 57
16 24 25 23 25 28 29 34 39 51 63 67 71 74 72 70 68 66 67 67 67 65 62 61 62 61 63 61 65 65 59 57 52 49 51 50 48 48 51 52 52 53 57 61
16 25 27 23 22 22 26 30 37 43 51 57 60 63 66 67 69 66 64 63 62 61 58 60 62 63 58 62 60 54 53 51 51 49 45 45 47 48 50 50 54 57 61 64
12 16 27 29 25 25 26 30 34 41 45 47 43 49 56 58 59 59 60 57 56 55 56 57 58 57 55 54 49 47 46 46 46 44 42 42 46 49 53 57 58 61 66 70
14 18 24 19 27 27 29 33 37 44 48 48 41 40 44 46 45 49 50 51 53 53 53 54 53 49 47 45 42 42 43 43 43 46 49 50 53 55 57 59 65 67 67 66
22 26 19 18 21 27 24 26 37 40 39 49 52 53 53 51 49 50 50 51 51 50 50 51 48 46 43 39 41 44 44 44 46 46 48 50 54 58 61 61 66 66 67 68
21 22 23 20 24 30 33 40 41 41 48 47 47 49 50 52 51 51 51 50 50 50 49 47 43 39 39 42 45 46 46 48 50 52 52 53 54 57 58 61 66 69 73 69
18 28 31 29 33 36 38 43 44 44 48 47 46 45 45 45 47 49 48 44 42 40 38 39 37 40 43 44 47 47 47 47 46 48 50 52 55 58 62 66 72 72 68 54
28 31 33 33 34 37 37 37 35 35 36 40 42 40 38 37 36 33 31 30 31 31 31 33 36 38 41 43 43 44 43 41 44 49 53 58 61 64 68 71 69 62 50 40
33 35 35 34 32 33 32 31 32 34 33 35 35 35 38 37 36 34 32 31 32 32 33 34 36 38 40 41 41 43 43 47 53 55 58 62 67 67 64 57 52 41 33 26
33 36 35 32 31 29 29 32 34 37 37 37 31 27 31 39 34 32 32 31 31 33 34 35 37 40 42 41 44 45 49 51 52 58 59 58 57 44 41 38 34 28 21 15

GFSCGP_250_spd_135.txt.gz
Wind_Speed
117 121 108 91 89 86 90 93 91 90 92 89 85 97 110 117 117 119 118 119 114 110 109 107 105 102 102 100 97 96 94 94 97 96 94 96 96 97 96 96 96 96 93 93
128 119 108 105 100 95 99 92 92 94 95 92 89 88 93 107 114 113 118 116 116 117 116 114 111 107 106 105 104 102 101 101 101 99 101 101 102 103 101 100 100 100 100 101
110 108 117 116 109 101 99 93 94 94 98 95 93 87 88 90 101 103 110 112 113 114 116 118 117 113 113 110 109 107 104 106 104 106 107 109 109 109 108 106 106 106 108 107
88 95 112 116 110 104 98 99 107 103 99 96 95 88 89 88 87 87 91 100 102 108 111 112 115 115 117 117 114 112 108 109 109 109 109 112 110 110 113 113 114 114 112 113
70 85 104 110 110 105 89 113 113 108 100 99 97 95 85 88 89 80 79 83 91 98 104 105 105 107 113 115 114 115 114 112 111 111 110 111 112 114 116 117 117 115 115 113
66 78 88 95 95 96 104 114 113 112 108 106 100 92 90 87 82 85 79 79 81 85 91 101 101 103 103 102 102 105 106 110 111 112 112 113 113 114 113 114 112 113 115 114
63 69 77 85 91 101 100 110 116 120 116 107 90 90 85 87 88 85 83 79 77 79 82 83 87 96 100 101 100 100 104 105 107 109 113 115 114 114 112 109 109 110 112 112
53 59 64 75 82 91 91 95 107 110 104 89 89 95 87 89 90 86 81 80 79 79 81 83 83 80 84 85 85 88 91 95 97 99 102 105 107 109 110 109 106 100 90 84
49 54 58 64 73 85 92 91 95 107 106 99 102 96 99 98 87 80 81 77 75 74 73 78 78 78 75 77 82 86 88 92 93 96 96 95 95 95 92 88 86 81 77 78
43 50 54 57 62 74 81 84 97 104 105 105 103 98 97 94 84 80 82 82 78 76 77 76 73 65 73 75 74 76 78 80 82 85 83 81 81 80 78 78 76 72 70 68
33 41 46 52 55 63 74 84 84 90 101 99 97 98 96 90 83 83 79 75 71 72 73 73 74 72 69 70 71 73 75 75 76 78 76 75 74 73 71 65 64 60 59 62
25 32 42 50 54 58 69 75 74 78 90 94 96 100 100 91 92 77 77 80 78 72 70 69 68 68 68 70 72 73 74 74 72 74 73 74 74 71 64 61 58 60 62 63
20 25 31 36 44 50 56 63 68 70 81 89 94 98 97 93 80 80 80 79 77 74 71 68 66 64 63 62 64 66 67 67 69 72 74 73 71 68 63 59 58 59 58 56
12 18 24 32 44 53 57 56 59 63 69 76 88 98 94 84 89 87 82 78 76 73 71 69 66 65 66 65 65 64 65 66 69 71 73 71 67 66 63 63 60 57 54 50
13 11 16 25 34 44 52 56 55 60 62 67 83 83 87 90 81 88 86 83 79 75 71 68 68 69 69 69 67 66 68 71 70 70 69 69 65 63 64 64 61 57 52 49
23 11 15 19 24 30 45 51 56 57 71 68 40 74 94 87 89 86 86 84 82 78 75 72 71 71 70 68 64 69 70 66 66 67 68 67 66 64 63 60 57 56 54 49
20 19 11 12 20 25 35 47 55 57 59 56 63 72 62 80 87 85 84 81 80 77 74 71 68 66 66 67 66 66 67 66 67 65 65 64 63 61 62 55 55 53 52 51
21 19 19 12 13 22 28 39 50 52 46 47 48 60 65 71 73 77 78 76 73 73 71 67 64 63 64 65 67 66 65 65 63 63 60 61 59 57 52 50 48 49 50 52
26 28 28 18 13 14 23 31 36 46 51 55 51 50 56 63 66 68 68 70 68 65 61 59 60 62 62 64 64 63 64 61 60 57 58 54 51 48 48 48 50 52 56 60
29 31 33 20 13 12 24 33 40 51 54 57 41 41 56 58 60 63 63 63 61 58 57 57 58 61 61 61 60 60 58 55 54 53 50 47 48 50 51 52 51 53 57 60
35 40 2 16 28 21 19 48 52 58 41 28 26 32 35 45 54 57 56 55 56 56 56 55 56 55 55 56 54 52 53 51 47 43 46 48 48 49 49 51 56 58 61 63
35 28 25 34 25 23 32 52 56 48 44 32 25 28 29 29 28 32 34 38 45 49 53 52 50 49 48 47 47 48 46 43 44 45 47 49 51 54 54 55 57 59 62 66
28 26 30 31 36 32 46 47 47 49 41 38 41 41 33 29 30 32 42 39 36 41 42 40 40 42 43 43 41 39 42 44 46 48 50 51 52 54 55 57 58 62 66 70
22 32 29 33 36 34 48 54 56 54 50 52 51 48 51 44 39 29 36 41 41 40 37 39 41 43 44 44 45 45 44 46 49 48 51 53 54 56 56 60 63 65 69 68
24 24 30 39 37 39 42 43 52 49 49 51 51 51 56 56 46 35 44 40 41 38 33 31 33 33 35 38 40 42 45 45 47 51 52 54 58 58 61 63 63 65 61 52
29 31 35 39 41 40 36 37 45 46 43 50 52 47 46 48 49 47 40 33 30 30 32 32 32 34 36 39 42 44 46 48 52 54 54 60 61 63 66 65 62 60 52 39

GFSCGP_250_spd_138.txt.gz
Wind_Speed
118 120 109 95 90 89 88 86 86 91 91 84 75 82 82 100 114 113 116 115 116 113 110 106 102 100 97 88 89 92 92 91 94 98 97 95 89 89 88 88 85 89 89 89
122 128 115 109 108 101 96 94 89 95 96 92 84 84 85 86 92 110 111 118 116 115 114 111 107 104 97 99 96 92 94 94 102 102 101 100 95 96 96 93 94 96 96 96
97 106 117 113 108 104 100 95 87 90 98 95 93 91 87 84 83 84 102 112 115 116 115 114 112 109 104 102 100 95 93 95 105 112 112 110 103 100 98 97 101 101 100 100
76 85 109 117 114 110 102 98 98 97 96 99 98 91 90 81 82 81 78 91 104 111 115 116 113 112 111 110 105 98 95 97 74 71 80 84 97 101 102 107 108 108 107 107
64 72 92 108 105 113 99 106 110 106 104 102 103 97 86 86 86 78 75 79 84 96 108 113 112 112 113 115 112 105 100 104 116 121 116 111 108 104 109 111 112 111 112 110
59 67 82 97 108 120 111 119 116 114 109 110 98 92 90 85 78 81 80 79 74 74 83 97 107 107 112 112 110 107 109 113 116 116 115 117 112 111 115 119 117 116 116 114
51 63 74 90 99 111 115 123 118 118 119 108 98 85 83 79 83 85 82 79 76 72 69 74 86 98 108 105 107 107 108 109 109 109 111 110 109 110 113 113 108 102 101 104
43 56 65 75 85 106 105 114 115 113 110 102 89 64 80 81 90 84 85 79 76 74 70 68 71 73 85 94 95 97 104 105 106 107 105 104 104 104 106 105 105 104 103 102
35 44 55 63 74 87 96 110 115 114 110 106 93 90 98 95 91 94 83 80 74 72 71 70 69 66 62 63 69 81 85 91 97 102 102 102 100 100 99 96 93 91 95 88
32 43 51 58 65 76 83 101 110 114 116 101 105 96 99 97 91 85 83 81 74 66 65 70 70 63 62 62 65 66 70 72 74 76 78 79 83 84 83 84 82 79 74 73
23 32 38 48 56 62 73 86 92 105 102 87 103 89 94 99 93 89 84 78 77 75 68 65 65 62 61 69 69 66 64 64 65 67 69 70 71 69 70 70 70 69 69 71
16 23 34 45 47 52 60 73 83 94 92 81 94 96 105 102 103 89 80 80 75 76 74 72 69 64 70 66 66 66 65 65 66 66 66 65 64 66 68 69 71 69 70 69
5 14 20 29 42 45 49 59 75 86 87 84 87 94 98 103 97 82 80 79 80 79 78 74 72 70 66 65 66 66 65 65 65 65 66 64 65 68 69 70 71 72 69 63
10 8 16 26 33 40 45 51 66 79 84 78 79 88 94 89 87 80 81 83 82 81 81 77 73 70 67 64 62 63 62 60 60 61 61 63 66 67 68 72 74 70 67 62
15 12 11 17 31 37 44 48 58 71 75 70 68 78 84 85 83 79 83 85 83 81 79 76 72 71 68 66 64 63 62 61 61 62 66 68 68 70 72 71 70 69 65 62
21 16 15 13 20 31 39 45 52 62 68 72 69 73 65 71 73 79 80 82 82 81 78 74 70 67 66 67 65 63 60 62 66 68 69 69 71 70 71 69 70 68 63 61
19 21 15 14 18 25 32 35 48 55 60 69 66 55 59 67 67 71 67 75 81 79 78 76 71 68 67 66 64 64 64 68 69 69 70 69 69 70 70 69 69 62 61 63
32 32 17 13 17 28 38 41 47 56 58 56 50 41 48 56 59 68 70 68 74 77 74 73 72 70 69 68 65 65 66 66 66 67 69 69 68 69 69 68 63 61 62 59
40 41 35 21 14 26 37 37 33 49 55 50 49 51 47 38 41 57 69 70 68 71 75 75 72 71 69 69 67 65 66 66 67 68 66 64 66 67 66 61 60 60 57 56
45 42 37 37 19 23 33 36 42 39 40 45 41 44 46 44 31 42 51 65 69 68 64 64 65 64 63 64 64 64 64 64 64 63 63 62 63 61 59 58 55 57 55 56
24 22 24 17 9 25 36 47 49 45 49 51 53 47 44 42 42 42 46 51 61 61 65 62 57 56 59 61 61 60 60 59 59 58 60 60 56 55 54 52 53 55 57 60
33 24 24 11 21 35 42 38 39 42 44 42 39 36 35 32 30 33 40 46 45 49 51 53 52 51 55 56 54 54 53 54 56 57 52 51 51 51 52 53 55 59 61 60
34 35 34 37 41 45 48 47 41 35 32 37 38 32 26 30 25 28 30 32 36 38 42 46 47 47 47 47 49 51 52 51 47 46 46 48 48 49 52 56 58 63 62 60
43 40 32 31 34 43 46 44 41 34 35 28 31 23 18 15 20 24 20 23 25 31 31 33 38 43 40 39 41 41 40 40 39 43 48 50 51 52 54 57 60 63 63 65
42 41 40 44 38 44 40 47 46 42 37 30 39 38 31 17 23 18 27 29 33 31 24 23 31 30 31 34 37 39 42 45 46 47 48 49 51 54 57 61 65 65 66 68
36 42 44 39 50 45 35 45 47 44 44 40 34 40 32 23 26 25 22 24 28 31 32 36 35 31 30 32 35 36 39 42 45 47 49 52 54 58 61 64 67 70 69 65

GFSCGP_250_spd_141.txt.gz
Wind_Speed
117 119 107 95 93 84 80 82 82 79 89 91 81 78 77 79 95 109 113 115 113 110 109 101 94 92 94 83 72 72 77 73 62 65 58 74 76 78 85 82 81 81 82 86
97 109 101 103 100 91 89 86 85 90 89 90 85 88 83 84 77 92 101 109 112 114 112 107 100 101 98 86 81 79 80 81 93 86 87 86 92 95 91 91 94 91 91 93
79 88 105 109 105 93 92 91 88 86 91 86 87 89 88 84 79 80 88 96 105 111 110 110 109 108 101 96 88 84 87 90 94 101 97 93 95 98 96 95 95 96 98 98
60 76 88 97 99 95 97 92 91 91 95 86 87 86 90 86 81 75 75 75 85 101 106 108 111 112 108 103 96 91 92 96 101 100 96 99 101 101 100 100 101 100 100 98
54 67 77 87 99 107 91 102 102 98 99 92 93 90 86 90 89 71 64 70 75 80 92 103 107 111 111 110 103 99 97 96 99 104 104 104 107 106 104 102 104 103 100 92
48 58 66 79 89 100 101 112 110 109 102 110 97 90 90 90 72 74 70 66 68 72 75 77 97 105 104 108 107 102 104 107 106 98 85 105 115 111 104 109 110 110 111 111
42 51 61 71 80 92 98 101 106 112 113 101 105 99 84 72 75 78 77 69 69 66 67 71 71 85 101 105 105 103 105 108 105 100 101 93 93 90 104 110 110 111 111 112
35 43 53 64 72 81 89 100 105 103 106 92 102 99 72 69 77 85 85 76 71 67 64 66 66 64 80 90 94 102 108 108 108 109 108 112 110 103 103 103 108 109 108 106
29 38 44 54 65 73 85 99 104 111 109 102 102 92 74 85 85 85 84 82 76 69 68 64 61 64 58 62 71 74 83 99 105 106 107 108 107 107 105 101 100 102 107 107
26 32 38 49 60 66 74 93 104 108 108 110 106 87 73 91 91 78 79 78 76 75 72 67 60 54 52 53 55 61 64 79 89 92 97 95 95 97 96 99 97 99 98 93
16 24 30 39 50 60 69 79 91 103 107 107 106 93 81 94 98 88 82 78 77 75 70 65 59 54 54 55 57 62 55 55 57 59 62 66 70 75 76 76 84 85 78 72
6 13 23 29 39 50 59 68 80 90 98 95 98 91 90 97 94 90 85 80 74 70 70 67 62 58 54 48 52 52 54 55 56 57 56 56 58 59 61 63 62 62 62 62
10 9 13 22 33 42 49 54 65 74 89 92 92 97 93 96 91 85 85 82 76 72 70 69 64 59 56 58 60 57 56 57 58 57 58 59 58 59 60 61 63 64 67 69
10 9 9 14 23 33 38 43 50 64 75 84 86 93 94 96 90 81 84 86 82 77 73 70 69 64 61 59 57 60 60 59 57 58 61 62 62 64 66 65 66 67 69 69
14 11 9 11 20 26 32 36 42 52 66 75 82 87 92 93 88 85 84 84 84 79 74 73 69 67 66 64 63 64 63 62 62 62 62 63 65 66 66 66 68 70 71 72
21 15 12 14 18 24 27 31 35 47 58 73 79 80 83 88 91 84 78 81 84 77 75 73 70 65 64 67 70 71 67 66 65 65 65 65 65 66 68 70 70 70 73 75
29 15 10 13 17 23 26 26 29 44 50 57 57 68 77 74 83 81 80 74 69 70 74 70 71 70 67 67 67 67 67 66 65 66 66 67 68 70 70 70 71 72 76 74
45 26 15 14 19 23 21 22 30 39 37 43 59 59 61 63 57 68 72 67 69 63 59 67 69 72 72 69 68 65 64 64 65 66 65 67 69 69 69 70 71 75 73 72
36 41 22 20 24 27 27 30 36 51 50 42 39 29 50 47 56 54 59 63 63 52 59 65 67 68 66 66 66 65 64 65 64 64 66 66 67 69 68 69 73 70 70 70
34 35 34 25 29 36 25 32 39 52 54 58 50 39 42 41 39 50 53 57 58 61 57 57 62 64 64 64 62 61 61 62 63 66 65 66 68 68 70 68 67 67 68 69
19 27 33 28 27 27 28 33 37 43 50 61 56 34 32 40 30 32 44 51 51 51 55 54 49 55 61 64 62 60 60 60 62 62 62 64 66 67 65 65 65 67 65 62
19 21 33 36 33 1 19 26 26 33 36 43 49 47 40 44 35 28 34 40 44 50 52 52 51 51 53 56 59 59 58 59 59 60 61 63 62 63 60 62 63 61 58 60
23 26 21 35 37 32 26 20 36 40 39 40 39 41 41 40 30 27 24 29 34 39 46 50 51 51 49 50 55 56 54 56 56 56 54 57 58 56 58 58 57 56 59 59
36 31 38 37 32 32 39 38 37 37 36 33 32 31 31 33 23 25 23 21 30 34 32 37 45 49 48 47 45 49 49 47 48 49 50 50 50 52 52 54 55 56 58 62
38 38 34 32 29 37 36 34 35 37 33 24 26 26 20 21 21 20 25 29 28 30 33 34 33 32 33 34 33 36 38 39 41 44 46 47 49 49 51 53 56 58 61 63
39 36 34 30 30 33 36 40 41 41 38 39 35 29 21 20 22 21 24 23 22 21 20 21 23 24 25 27 29 29 34 38 40 42 43 44 47 49 52 55 59 62 64 66